[[{"header":{"parameterUnit":"m.s-1","parameterCategory":2,"la1":30.2991,"la2":30.254,"lo1":-89.0895,"lo2":-89.0444,"dy":0.0017,"dx":0.0017,"nx":28,"ny":28,"refTime":"2024-12-17T09:00:00:Z","depth":"0","parameterNumber":2,"parameterNumberName":"U-component_of_CURRENTS"},"data":[0,0,0,0,0,0,0,0,0,0,0,0,0,0,0,0,0,0,0,0,0,0,0,0,0,0,0,0,0,0,0,0,0,0,0,0,0,0,0,0,0,0,0,0,0,0,0,0,0,0,0,0,0,0,0,0,0,0,-0.2645,-0.2645,0,-0.2663,-0.2664,-0.2664,-0.2646,-0.2646,-0.2645,-0.2644,-0.2592,-0.2591,-0.2591,0,0,0,0,0,0,0,0,0,0,0,0,0,-0.2546,-0.2548,-0.2645,-0.2645,-0.2646,-0.2663,-0.2664,-0.2664,-0.2646,-0.2646,-0.2645,-0.2644,-0.2592,-0.2591,-0.259,0,0,0,0,0,0,0,0,0,0,0,0,0,-0.2579,-0.2549,-0.2645,-0.264,-0.2639,-0.2663,-0.2664,-0.2664,-0.2646,-0.2646,-0.2645,-0.2644,-0.2593,-0.2592,-0.259,-0.2602,0,0,-0.2587,-0.2586,0,0,0,0,0,0,0,0,-0.2577,-0.2582,-0.264,-0.264,-0.264,-0.2652,-0.261,-0.264,-0.2647,-0.2643,-0.2644,-0.2643,-0.2607,-0.2605,-0.261,-0.2599,-0.2597,-0.2587,-0.2586,-0.2585,-0.2585,0,0,0,0,0,0,0,-0.2575,-0.2581,-0.2651,-0.264,-0.264,-0.262,-0.2624,-0.2615,-0.2628,-0.2643,-0.2642,-0.2646,-0.2606,-0.2611,-0.2608,-0.2596,-0.2587,-0.2586,-0.2585,-0.2584,-0.2608,-0.2609,0,0,0,0,0,0,-0.2578,-0.258,-0.2651,-0.2652,-0.2606,-0.2622,-0.2627,-0.2649,-0.263,-0.2627,-0.2647,-0.2645,-0.2614,-0.261,-0.2606,-0.2625,-0.2585,-0.2584,-0.2584,-0.2607,-0.2608,-0.261,0,0,0,0,0,0,-0.2576,-0.2585,-0.265,-0.2615,-0.2622,-0.2626,-0.265,-0.2649,-0.2645,-0.2633,-0.2628,-0.2641,-0.2613,-0.2608,-0.2596,-0.2622,-0.2584,-0.2583,-0.2605,-0.2607,-0.2609,-0.2657,0,0,0,0,0,0,-0.2574,-0.2585,-0.2594,-0.2616,-0.2624,-0.2653,-0.2651,-0.2651,-0.2649,-0.2647,-0.2627,-0.2622,-0.2612,-0.2598,-0.2595,-0.262,-0.2582,-0.2603,-0.2606,-0.2608,-0.2654,-0.2661,-0.2666,0,0,0,0,0,-0.257,-0.2584,-0.2595,-0.2603,-0.2641,-0.2653,-0.2654,-0.2652,-0.265,-0.2645,-0.2639,-0.2622,-0.2613,-0.2598,-0.2594,-0.2619,-0.2602,-0.2605,-0.2608,-0.2651,-0.2659,-0.2666,0,0,0,0,0,0,-0.2536,-0.2585,-0.2597,-0.2622,-0.2633,-0.265,-0.2649,-0.265,-0.2645,-0.2642,-0.2628,-0.2623,-0.2631,-0.2616,-0.26,-0.2636,-0.261,-0.2612,-0.2644,-0.2651,-0.2657,-0.2679,-0.2581,0,0,0,0,0,-0.2538,-0.2567,-0.2597,-0.2615,-0.2624,-0.2637,-0.2641,-0.2643,-0.2645,-0.2642,-0.2631,-0.263,-0.2644,-0.2637,-0.264,-0.2645,-0.2635,-0.2664,-0.267,-0.2675,-0.2692,-0.2671,-0.2676,-0.262,-0.262,-0.262,0,0,-0.2527,-0.2559,-0.2572,-0.2609,-0.2622,-0.2652,-0.2636,-0.2644,-0.2671,-0.2637,-0.2654,-0.2647,-0.2652,-0.267,-0.2673,-0.2655,-0.2693,-0.2679,-0.2684,-0.2698,-0.2675,-0.268,-0.2685,-0.2622,-0.2621,-0.2621,0,0,-0.2527,-0.2553,-0.258,-0.2601,-0.2627,-0.2645,-0.2647,-0.2663,-0.2669,-0.2686,-0.2683,-0.2689,-0.2692,-0.2708,-0.2719,-0.276,-0.273,-0.2758,-0.2799,-0.2778,-0.2782,-0.2785,-0.2803,-0.2807,-0.2755,-0.2755,-0.2755,0,-0.2518,-0.2559,-0.2581,-0.2618,-0.264,-0.2647,-0.2678,-0.2697,-0.2704,-0.2713,-0.2696,-0.2726,-0.2724,-0.2765,-0.279,-0.2776,-0.2761,-0.2767,-0.2784,-0.2787,-0.279,-0.2807,-0.2811,-0.2758,-0.2757,-0.2757,-0.2757,0,-0.2538,-0.2578,-0.2592,-0.2658,-0.2682,-0.27,-0.2742,-0.2752,-0.2761,-0.2778,-0.2802,-0.2799,-0.2813,-0.2823,-0.2824,-0.2853,-0.2838,-0.2796,-0.2762,-0.2798,-0.2814,-0.2818,-0.2762,-0.2761,-0.276,-0.2759,0,0,-0.2508,-0.2594,-0.2599,-0.2637,-0.2703,-0.2722,-0.2778,-0.282,-0.2841,-0.2855,-0.2879,-0.2923,-0.2903,-0.2916,-0.2905,-0.2899,-0.2921,-0.2859,-0.2857,-0.2872,-0.2894,-0.282,-0.2816,-0.2861,-0.2862,-0.2862,-0.2905,0,-0.2518,-0.2586,-0.2633,-0.2698,-0.2736,-0.2779,-0.2825,-0.2866,-0.2888,-0.2907,-0.2926,-0.2941,-0.2945,-0.2935,-0.2941,-0.2919,-0.2929,-0.2915,-0.2861,-0.2861,-0.2784,-0.2817,-0.2623,-0.2638,-0.2909,-0.2909,-0.291,0,-0.2517,-0.257,-0.2633,-0.272,-0.2739,-0.278,-0.284,-0.2881,-0.2929,-0.294,-0.2967,-0.2968,-0.3003,-0.297,-0.2983,-0.2965,-0.2949,-0.2932,-0.2931,-0.2847,-0.2792,-0.2641,-0.2634,-0.2495,-0.2915,-0.2914,-0.2914,0,-0.2466,-0.2565,-0.2612,-0.2645,-0.2745,-0.2776,-0.2819,-0.2878,-0.2905,-0.2947,-0.2956,-0.2993,-0.2993,-0.2987,-0.2983,-0.297,-0.2973,-0.2941,-0.2875,-0.2871,-0.2692,-0.267,-0.2536,-0.2947,-0.2947,-0.2947,-0.2947,0,-0.2453,-0.2489,-0.2588,-0.2616,-0.2663,-0.2743,-0.2782,-0.2826,-0.2879,-0.2907,-0.2954,-0.2973,-0.2986,-0.2994,-0.2991,-0.2951,-0.2981,-0.2901,-0.2871,-0.2707,-0.2687,-0.2545,-0.2572,-0.2949,-0.2948,-0.2948,-0.2948,0,-0.2388,-0.2453,-0.2509,-0.2611,-0.2641,-0.2667,-0.2756,-0.2779,-0.2834,-0.287,-0.2882,-0.2951,-0.2964,-0.2983,-0.2974,-0.2942,-0.2839,-0.2895,-0.2727,-0.2676,-0.2469,-0.2509,-0.2491,-0.2431,-0.2832,-0.2831,-0.2829,0,-0.2362,-0.2384,-0.2482,-0.251,-0.2556,-0.2612,-0.2649,-0.2735,-0.2769,-0.2855,-0.2868,-0.2907,-0.2922,-0.2907,-0.284,-0.2811,-0.2783,-0.2622,-0.2563,-0.2441,-0.2464,-0.2521,-0.2477,-0.2364,-0.2359,-0.2355,-0.2352,0,-0.2308,-0.2334,-0.2378,-0.2437,-0.2482,-0.2533,-0.2598,-0.2621,-0.2718,-0.2761,-0.2812,-0.2828,-0.2807,-0.2679,-0.263,-0.2588,-0.2496,-0.2535,-0.2421,-0.2111,-0.2152,-0.2082,-0.2398,-0.2314,-0.2318,-0.2321,-0.2323,-0.2324,-0.2249,-0.225,-0.2302,-0.2352,-0.2398,-0.2433,-0.2441,-0.2526,-0.2569,-0.2605,-0.2701,-0.2657,-0.2515,-0.2409,-0.234,-0.2047,-0.2269,-0.1952,-0.2026,-0.2107,-0.1992,-0.2258,-0.2124,-0.2127,-0.2129,-0.2131,-0.2133,0,-0.2173,-0.2184,-0.2222,-0.2263,-0.227,-0.2333,-0.239,-0.2383,-0.2409,-0.2433,-0.2465,-0.2273,-0.2081,-0.1913,-0.1621,-0.1518,-0.1502,-0.1491,-0.1477,-0.1469,-0.1659,-0.1568,-0.1287,-0.1288,-0.1288,-0.1288,-0.1288,-0.1288,-0.2129,-0.2123,-0.2145,-0.2128,-0.2148,-0.2119,-0.2126,-0.2141,-0.2136,-0.2024,-0.1903,-0.1872,-0.16,-0.1477,-0.1168,-0.1112,-0.1089,-0.1115,-0.1213,-0.1255,-0.1301,-0.1345,-0.1254,-0.0913,-0.0913,-0.0883,-0.0883,-0.0882]},{"header":{"parameterUnit":"m.s-1","parameterCategory":2,"la1":30.2991,"la2":30.254,"lo1":-89.0895,"lo2":-89.0444,"dy":0.0017,"dx":0.0017,"nx":28,"ny":28,"refTime":"2024-12-17T09:00:00:Z","depth":"0","parameterNumber":3,"parameterNumberName":"V-component_of_CURRENTS"},"data":[0,0,0,0,0,0,0,0,0,0,0,0,0,0,0,0,0,0,0,0,0,0,0,0,0,0,0,0,0,0,0,0,0,0,0,0,0,0,0,0,0,0,0,0,0,0,0,0,0,0,0,0,0,0,0,0,0,0,-0.1229,-0.1229,0,-0.1063,-0.106,-0.1057,-0.0916,-0.0915,-0.0915,-0.0914,-0.0756,-0.0752,-0.0748,0,0,0,0,0,0,0,0,0,0,0,0,0,-0.1388,-0.1385,-0.1229,-0.1228,-0.1228,-0.1063,-0.106,-0.1056,-0.0916,-0.0915,-0.0915,-0.0914,-0.0757,-0.0752,-0.0748,0,0,0,0,0,0,0,0,0,0,0,0,0,-0.1269,-0.1384,-0.123,-0.1147,-0.1139,-0.1064,-0.106,-0.1055,-0.0916,-0.0915,-0.0915,-0.0914,-0.0758,-0.0753,-0.0747,-0.0724,0,0,-0.0729,-0.0727,0,0,0,0,0,0,0,0,-0.1276,-0.1261,-0.116,-0.1152,-0.1143,-0.102,-0.1058,-0.0949,-0.0916,-0.0987,-0.0914,-0.0914,-0.0854,-0.084,-0.0792,-0.0716,-0.0709,-0.0729,-0.0725,-0.0723,-0.0721,0,0,0,0,0,0,0,-0.1284,-0.1268,-0.1151,-0.1159,-0.1149,-0.1106,-0.1087,-0.1035,-0.0916,-0.0981,-0.0973,-0.0975,-0.0847,-0.0798,-0.0788,-0.0707,-0.0729,-0.0724,-0.072,-0.0718,-0.0626,-0.0627,0,0,0,0,0,0,-0.1332,-0.1276,-0.1156,-0.1147,-0.1223,-0.1105,-0.1083,-0.105,-0.0916,-0.0899,-0.0976,-0.0969,-0.0808,-0.0794,-0.0782,-0.077,-0.0723,-0.0718,-0.0714,-0.0625,-0.0626,-0.0627,0,0,0,0,0,0,-0.1335,-0.1321,-0.1163,-0.122,-0.1198,-0.1104,-0.1067,-0.1048,-0.0998,-0.0915,-0.0894,-0.0949,-0.0807,-0.079,-0.0775,-0.0763,-0.0715,-0.071,-0.0624,-0.0625,-0.0627,-0.0734,0,0,0,0,0,0,-0.134,-0.1322,-0.1316,-0.1222,-0.1197,-0.1135,-0.1069,-0.1045,-0.1006,-0.0995,-0.0886,-0.087,-0.0805,-0.0784,-0.0769,-0.0754,-0.0705,-0.0622,-0.0624,-0.0626,-0.0729,-0.0739,-0.0747,0,0,0,0,0,-0.1345,-0.1336,-0.1316,-0.1303,-0.1189,-0.1137,-0.1119,-0.1042,-0.1007,-0.0992,-0.0944,-0.0873,-0.0784,-0.0782,-0.0763,-0.0746,-0.0621,-0.0624,-0.0626,-0.0725,-0.0737,-0.0747,0,0,0,0,0,0,-0.1403,-0.132,-0.1295,-0.1261,-0.1218,-0.1118,-0.1099,-0.1053,-0.0995,-0.0986,-0.09,-0.0883,-0.0856,-0.0801,-0.0801,-0.0727,-0.0684,-0.0683,-0.0765,-0.0776,-0.0785,-0.0814,-0.07,0,0,0,0,0,-0.142,-0.1388,-0.1317,-0.1298,-0.1273,-0.1189,-0.116,-0.1112,-0.1054,-0.1023,-0.096,-0.0896,-0.0847,-0.0818,-0.0765,-0.0737,-0.072,-0.0711,-0.072,-0.0728,-0.0741,-0.0747,-0.0759,-0.0635,-0.0634,-0.0634,0,0,-0.1447,-0.1397,-0.1382,-0.1311,-0.1258,-0.1239,-0.1165,-0.1125,-0.1112,-0.1021,-0.0986,-0.0929,-0.0852,-0.0818,-0.0798,-0.0772,-0.0753,-0.0731,-0.0738,-0.0747,-0.0751,-0.0763,-0.0774,-0.0636,-0.0636,-0.0636,0,0,-0.1485,-0.1429,-0.1416,-0.1381,-0.1327,-0.1279,-0.1279,-0.1191,-0.1148,-0.1126,-0.1055,-0.1019,-0.0933,-0.088,-0.0842,-0.0875,-0.0807,-0.0835,-0.0895,-0.0902,-0.0912,-0.0922,-0.0916,-0.0924,-0.0834,-0.0834,-0.0834,0,-0.152,-0.1487,-0.1413,-0.1396,-0.1388,-0.1308,-0.1312,-0.1257,-0.1186,-0.1164,-0.1136,-0.1033,-0.0964,-0.0929,-0.093,-0.0893,-0.0886,-0.086,-0.0916,-0.0924,-0.0932,-0.0924,-0.0932,-0.084,-0.0839,-0.0838,-0.0838,0,-0.1554,-0.1527,-0.1518,-0.1472,-0.1457,-0.1443,-0.1385,-0.1356,-0.1309,-0.1256,-0.1217,-0.1143,-0.108,-0.1042,-0.099,-0.0991,-0.0965,-0.0934,-0.0894,-0.0952,-0.0939,-0.0945,-0.0847,-0.0845,-0.0844,-0.0842,0,0,-0.1616,-0.1552,-0.155,-0.1548,-0.1495,-0.1488,-0.1473,-0.1434,-0.1423,-0.1357,-0.1351,-0.126,-0.1208,-0.1164,-0.1091,-0.1087,-0.1121,-0.1035,-0.1033,-0.104,-0.1135,-0.103,-0.1026,-0.1104,-0.1106,-0.1107,-0.1105,0,-0.1661,-0.1654,-0.1619,-0.1642,-0.1632,-0.158,-0.1576,-0.1537,-0.1488,-0.1461,-0.1381,-0.1342,-0.1255,-0.1229,-0.1214,-0.1139,-0.1141,-0.1124,-0.1068,-0.1067,-0.0975,-0.1031,-0.087,-0.0847,-0.111,-0.1111,-0.1112,0,-0.1704,-0.1689,-0.1711,-0.1705,-0.17,-0.1718,-0.1708,-0.1693,-0.1627,-0.1584,-0.1536,-0.1466,-0.1421,-0.136,-0.129,-0.1284,-0.1224,-0.1177,-0.1175,-0.1046,-0.0973,-0.083,-0.0847,-0.0598,-0.112,-0.1119,-0.1119,0,-0.1775,-0.1762,-0.1788,-0.1784,-0.1761,-0.178,-0.1778,-0.1729,-0.1716,-0.1668,-0.1659,-0.1587,-0.1559,-0.149,-0.1357,-0.1334,-0.13,-0.1253,-0.1112,-0.1104,-0.0938,-0.0912,-0.0714,-0.1242,-0.1242,-0.1242,-0.1242,0,-0.1829,-0.1849,-0.1823,-0.1835,-0.1879,-0.1849,-0.1885,-0.1855,-0.1827,-0.1826,-0.173,-0.1729,-0.1595,-0.1535,-0.142,-0.1276,-0.1346,-0.1138,-0.1103,-0.0968,-0.0946,-0.0696,-0.0634,-0.1242,-0.1242,-0.1242,-0.1242,0,-0.1897,-0.1872,-0.1898,-0.1896,-0.1906,-0.1939,-0.1957,-0.197,-0.1929,-0.1939,-0.1931,-0.1849,-0.1762,-0.162,-0.1506,-0.1348,-0.1082,-0.1168,-0.1008,-0.0953,-0.0556,-0.0509,-0.0383,-0.0275,-0.1007,-0.1004,-0.1002,0,-0.1925,-0.1941,-0.1955,-0.1978,-0.1985,-0.202,-0.2041,-0.2019,-0.2031,-0.201,-0.2028,-0.1954,-0.1893,-0.1666,-0.1379,-0.1156,-0.1018,-0.0864,-0.0782,-0.0518,-0.0441,-0.0439,-0.0358,-0.0609,-0.0604,-0.0599,-0.0596,0,-0.1984,-0.1988,-0.2007,-0.2049,-0.2087,-0.2128,-0.2161,-0.2183,-0.2158,-0.2163,-0.2167,-0.2129,-0.1859,-0.1526,-0.1186,-0.1011,-0.0652,-0.0769,-0.0538,-0.0152,-0.0099,0.0019,-0.0627,-0.0558,-0.0562,-0.0565,-0.0567,-0.0568,-0.2021,-0.2054,-0.2076,-0.2122,-0.217,-0.2228,-0.2265,-0.2297,-0.2328,-0.2308,-0.2267,-0.2107,-0.1583,-0.1073,-0.088,-0.0237,-0.0402,-0.0016,0.0003,-0.0031,0.013,-0.0429,-0.0291,-0.0293,-0.0295,-0.0296,-0.0298,0,-0.206,-0.2098,-0.2149,-0.2206,-0.2278,-0.2282,-0.2338,-0.2362,-0.2412,-0.2295,-0.2265,-0.1603,-0.109,-0.0546,0.027,0.056,0.0586,0.0692,0.0767,0.0798,0.0305,0.0391,0.0737,0.0737,0.0736,0.0736,0.0736,0.0735,-0.2078,-0.2138,-0.2165,-0.2279,-0.2332,-0.2409,-0.2435,-0.246,-0.2369,-0.2059,-0.1644,-0.1326,-0.0408,0.0526,0.1234,0.1286,0.145,0.1409,0.1422,0.1165,0.1102,0.1042,0.1146,0.1643,0.1644,0.1975,0.1979,0.1982]}],[{"header":{"parameterUnit":"m.s-1","parameterCategory":2,"la1":30.2991,"la2":30.254,"lo1":-89.0895,"lo2":-89.0444,"dy":0.0017,"dx":0.0017,"nx":28,"ny":28,"refTime":"2024-12-17T09:00:00:Z","depth":"2","parameterNumber":2,"parameterNumberName":"U-component_of_CURRENTS"},"data":[0,0,0,0,0,0,0,0,0,0,0,0,0,0,0,0,0,0,0,0,0,0,0,0,0,0,0,0,0,0,0,0,0,0,0,0,0,0,0,0,0,0,0,0,0,0,0,0,0,0,0,0,0,0,0,0,0,0,-0.2134,-0.2136,0,-0.222,-0.222,-0.2221,-0.2271,-0.2272,-0.2273,-0.2274,-0.239,-0.2392,-0.2394,0,0,0,0,0,0,0,0,0,0,0,0,0,-0.1997,-0.1998,-0.2134,-0.2136,-0.2138,-0.222,-0.222,-0.2221,-0.2271,-0.2272,-0.2273,-0.2275,-0.2389,-0.2392,-0.2394,0,0,0,0,0,0,0,0,0,0,0,0,0,-0.2058,-0.1999,-0.2133,-0.2179,-0.2185,-0.222,-0.222,-0.2221,-0.2271,-0.2272,-0.2274,-0.2275,-0.2388,-0.2392,-0.2395,-0.2383,0,0,-0.2404,-0.2406,0,0,0,0,0,0,0,0,-0.2055,-0.2062,-0.2171,-0.2176,-0.2183,-0.2245,-0.2215,-0.228,-0.227,-0.2228,-0.2274,-0.2276,-0.2349,-0.2355,-0.2355,-0.2388,-0.2393,-0.2405,-0.2407,-0.2408,-0.2409,0,0,0,0,0,0,0,-0.205,-0.2059,-0.2159,-0.2173,-0.218,-0.2191,-0.2201,-0.2227,-0.2272,-0.2232,-0.2238,-0.2262,-0.2351,-0.2351,-0.2358,-0.2395,-0.2405,-0.2407,-0.2409,-0.2411,-0.2478,-0.2478,0,0,0,0,0,0,-0.2058,-0.2055,-0.2156,-0.2162,-0.2132,-0.2193,-0.2203,-0.2216,-0.2271,-0.2284,-0.2261,-0.2264,-0.2345,-0.2354,-0.2362,-0.2383,-0.2408,-0.2411,-0.2413,-0.2479,-0.2478,-0.2478,0,0,0,0,0,0,-0.2054,-0.2065,-0.2153,-0.2118,-0.2132,-0.2195,-0.2208,-0.2217,-0.2233,-0.2295,-0.2306,-0.2271,-0.2347,-0.2358,-0.2434,-0.2387,-0.2412,-0.2415,-0.2479,-0.2479,-0.2478,-0.2404,0,0,0,0,0,0,-0.2049,-0.2063,-0.2079,-0.2118,-0.2134,-0.2187,-0.2207,-0.2218,-0.2249,-0.2254,-0.2306,-0.2318,-0.2349,-0.2429,-0.2437,-0.2392,-0.2418,-0.2479,-0.2479,-0.2478,-0.2407,-0.2402,-0.2397,0,0,0,0,0,-0.2044,-0.2057,-0.2079,-0.2093,-0.2153,-0.2188,-0.2196,-0.224,-0.2248,-0.2257,-0.2318,-0.2317,-0.2431,-0.2433,-0.2442,-0.2396,-0.2479,-0.2479,-0.2478,-0.2409,-0.2403,-0.2397,0,0,0,0,0,0,-0.2016,-0.2065,-0.209,-0.2122,-0.2162,-0.2201,-0.2213,-0.2239,-0.2286,-0.2303,-0.2343,-0.236,-0.2387,-0.2421,-0.2422,-0.2417,-0.2442,-0.2444,-0.2386,-0.2381,-0.2376,-0.2383,-0.242,0,0,0,0,0,-0.2016,-0.2019,-0.2087,-0.2103,-0.2126,-0.2166,-0.2187,-0.2225,-0.2273,-0.2294,-0.2334,-0.2373,-0.2386,-0.2415,-0.2438,-0.2462,-0.2484,-0.2431,-0.2427,-0.2422,-0.2435,-0.2427,-0.2422,-0.2478,-0.2478,-0.2478,0,0,-0.2013,-0.2033,-0.2043,-0.2094,-0.2119,-0.2145,-0.2179,-0.2219,-0.2237,-0.23,-0.2334,-0.2358,-0.2389,-0.2405,-0.2417,-0.2436,-0.2421,-0.2422,-0.2417,-0.2434,-0.2426,-0.242,-0.2415,-0.2478,-0.2478,-0.2478,0,0,-0.1987,-0.202,-0.2021,-0.2054,-0.2111,-0.2136,-0.2149,-0.2208,-0.2232,-0.2281,-0.2308,-0.2329,-0.2371,-0.2378,-0.2383,-0.2371,-0.2386,-0.2362,-0.2354,-0.2344,-0.2339,-0.2335,-0.2363,-0.2362,-0.237,-0.237,-0.237,0,-0.1984,-0.1996,-0.2029,-0.2043,-0.2072,-0.2126,-0.2151,-0.2172,-0.225,-0.2277,-0.2291,-0.2328,-0.2344,-0.2345,-0.2339,-0.2352,-0.2377,-0.2366,-0.2335,-0.2332,-0.2329,-0.2358,-0.2358,-0.2366,-0.2367,-0.2367,-0.2367,0,-0.1967,-0.1988,-0.1986,-0.2012,-0.2045,-0.2072,-0.2128,-0.2164,-0.2193,-0.2224,-0.2249,-0.2278,-0.2308,-0.2283,-0.231,-0.2287,-0.2322,-0.2316,-0.2343,-0.2318,-0.2352,-0.2353,-0.2361,-0.2363,-0.2364,-0.2364,0,0,-0.1924,-0.1969,-0.1965,-0.199,-0.2041,-0.2068,-0.2095,-0.2144,-0.2167,-0.2208,-0.2223,-0.2221,-0.2249,-0.2259,-0.2272,-0.2264,-0.2248,-0.229,-0.2292,-0.2309,-0.2265,-0.2146,-0.2137,-0.2239,-0.2239,-0.2239,-0.23,0,-0.1901,-0.1914,-0.1945,-0.1967,-0.1995,-0.2056,-0.207,-0.2126,-0.2163,-0.2193,-0.2207,-0.2219,-0.2232,-0.2242,-0.2235,-0.2244,-0.2248,-0.2235,-0.2299,-0.2301,-0.2187,-0.2131,-0.1946,-0.1971,-0.2301,-0.2301,-0.2301,0,-0.1876,-0.1891,-0.1911,-0.1968,-0.1985,-0.2005,-0.2063,-0.209,-0.2142,-0.2175,-0.2203,-0.2224,-0.2229,-0.2226,-0.2245,-0.2243,-0.2258,-0.2261,-0.2263,-0.218,-0.2181,-0.205,-0.1961,-0.2303,-0.2303,-0.2303,-0.2303,0,-0.1825,-0.1868,-0.1878,-0.1899,-0.1966,-0.1994,-0.2026,-0.2087,-0.2115,-0.2164,-0.2192,-0.2212,-0.2225,-0.2232,-0.2271,-0.2254,-0.2296,-0.2266,-0.2181,-0.2176,-0.2044,-0.2025,-0.2271,-0.2271,-0.2271,-0.2271,-0.2271,0,-0.1786,-0.18,-0.1861,-0.1872,-0.1898,-0.1963,-0.1996,-0.2041,-0.2093,-0.212,-0.2177,-0.2197,-0.2225,-0.2265,-0.2279,-0.2244,-0.2309,-0.217,-0.2165,-0.2014,-0.1992,-0.2305,-0.2308,-0.2273,-0.2273,-0.2272,-0.2272,0,-0.1727,-0.1762,-0.1791,-0.1857,-0.1876,-0.1897,-0.1969,-0.1991,-0.2061,-0.2096,-0.2109,-0.2185,-0.2227,-0.2284,-0.2307,-0.224,-0.2227,-0.2214,-0.2055,-0.2024,-0.2113,-0.2113,-0.2069,-0.2064,-0.2061,-0.2058,-0.2056,0,-0.1697,-0.1696,-0.1758,-0.1773,-0.1803,-0.1848,-0.1871,-0.1954,-0.1978,-0.2083,-0.2083,-0.216,-0.2197,-0.2208,-0.2105,-0.2086,-0.2214,-0.1891,-0.1775,-0.2084,-0.2084,-0.2089,-0.2093,-0.1601,-0.1595,-0.159,-0.1586,0,-0.1635,-0.1652,-0.1675,-0.1691,-0.1721,-0.1754,-0.1798,-0.1817,-0.1912,-0.1957,-0.2028,-0.2071,-0.2072,-0.1929,-0.1881,-0.1835,-0.1858,-0.1781,-0.215,-0.1658,-0.164,-0.1642,-0.1661,-0.1542,-0.1547,-0.155,-0.1552,-0.1554,-0.1595,-0.1573,-0.1585,-0.1606,-0.1632,-0.164,-0.1618,-0.1684,-0.1709,-0.175,-0.1873,-0.1858,-0.1819,-0.1595,-0.1539,-0.1452,-0.1555,-0.1464,-0.148,-0.1502,-0.1413,-0.1386,-0.123,-0.1232,-0.1234,-0.1236,-0.1238,0,-0.1518,-0.1499,-0.1494,-0.15,-0.1476,-0.1525,-0.154,-0.1492,-0.1483,-0.1558,-0.1602,-0.1416,-0.1297,-0.1318,-0.1078,-0.0995,-0.1001,-0.0981,-0.1003,-0.1044,-0.1082,-0.0974,-0.0673,-0.0672,-0.0671,-0.067,0,0,-0.1467,-0.1422,-0.1401,-0.134,-0.1336,-0.1255,-0.1236,-0.1205,-0.1196,-0.1184,-0.1164,-0.1215,-0.1221,-0.0928,-0.0857,-0.0748,-0.0896,-0.0701,-0.1145,-0.121,-0.1247,-0.1337,-0.1213,0,0,0,0,0]},{"header":{"parameterUnit":"m.s-1","parameterCategory":2,"la1":30.2991,"la2":30.254,"lo1":-89.0895,"lo2":-89.0444,"dy":0.0017,"dx":0.0017,"nx":28,"ny":28,"refTime":"2024-12-17T09:00:00:Z","depth":"2","parameterNumber":3,"parameterNumberName":"V-component_of_CURRENTS"},"data":[0,0,0,0,0,0,0,0,0,0,0,0,0,0,0,0,0,0,0,0,0,0,0,0,0,0,0,0,0,0,0,0,0,0,0,0,0,0,0,0,0,0,0,0,0,0,0,0,0,0,0,0,0,0,0,0,0,0,0.0013,0.0013,0,0.0068,0.0068,0.0069,0.0144,0.0146,0.0147,0.0148,0.0318,0.0321,0.0325,0,0,0,0,0,0,0,0,0,0,0,0,0,0.0009,0.0008,0.0013,0.0013,0.0014,0.0068,0.0068,0.0069,0.0144,0.0146,0.0147,0.0149,0.0317,0.0321,0.0325,0,0,0,0,0,0,0,0,0,0,0,0,0,0.0031,0.0008,0.0013,0.0058,0.0063,0.0068,0.0068,0.0069,0.0144,0.0146,0.0148,0.015,0.0316,0.032,0.0325,0.0318,0,0,0.0341,0.0343,0,0,0,0,0,0,0,0,0.003,0.0031,0.0051,0.0055,0.006,0.0101,0.0129,0.0158,0.0143,0.0113,0.0148,0.0151,0.0255,0.0265,0.0269,0.0325,0.0333,0.0341,0.0344,0.0346,0.0348,0,0,0,0,0,0,0,0.0028,0.003,0.0034,0.0051,0.0057,0.0088,0.0093,0.0135,0.0174,0.0116,0.0121,0.0127,0.0259,0.0264,0.0274,0.0335,0.0341,0.0345,0.0348,0.035,0.0453,0.0453,0,0,0,0,0,0,0.0017,0.0028,0.0033,0.0036,0.005,0.0087,0.0092,0.0086,0.0172,0.0186,0.0125,0.013,0.0255,0.0268,0.028,0.0304,0.0346,0.0351,0.0354,0.0453,0.0453,0.0453,0,0,0,0,0,0,0.0017,0.0017,0.003,0.0034,0.0038,0.0084,0.0077,0.0086,0.0101,0.0178,0.0195,0.0132,0.0257,0.0274,0.0344,0.031,0.0353,0.0358,0.0454,0.0453,0.0453,0.0334,0,0,0,0,0,0,0.0016,0.0016,0.0009,0.0033,0.0038,0.0033,0.0076,0.0086,0.0101,0.0108,0.0188,0.0206,0.0259,0.0336,0.0349,0.0318,0.0362,0.0454,0.0454,0.0453,0.0338,0.0329,0.0322,0,0,0,0,0,0.0016,-0.0006,0.0007,0.0009,0.0025,0.0032,0.0037,0.0077,0.0099,0.0098,0.0172,0.0204,0.0341,0.0341,0.0356,0.0325,0.0454,0.0454,0.0453,0.0341,0.0331,0.0322,0,0,0,0,0,0,-0.0007,0.0,0.0016,-0.0001,0.0016,0.0045,0.0045,0.0069,0.012,0.0136,0.0212,0.0234,0.0271,0.0325,0.0322,0.0356,0.0397,0.04,0.0307,0.0298,0.029,0.0289,0.0366,0,0,0,0,0,-0.0019,-0.0036,-0.0014,-0.0027,-0.0024,0.0008,0.0016,0.0042,0.0088,0.0111,0.0168,0.0233,0.0274,0.0312,0.0357,0.0387,0.0451,0.0375,0.0367,0.036,0.0371,0.0429,0.0427,0.0451,0.0451,0.0451,0,0,-0.0029,-0.003,-0.0036,-0.0034,-0.002,-0.0025,0.0017,0.0024,0.0029,0.0122,0.0154,0.0203,0.0276,0.0304,0.0325,0.0351,0.0389,0.0359,0.0352,0.0368,0.0428,0.0426,0.0424,0.0451,0.0451,0.0451,0,0,-0.0065,-0.0063,-0.0086,-0.0081,-0.0067,-0.005,-0.0051,-0.002,0.0003,0.0039,0.0098,0.0142,0.0212,0.0255,0.0286,0.0265,0.0335,0.0267,0.0235,0.029,0.0288,0.0287,0.0371,0.0379,0.0272,0.0272,0.0272,0,-0.0074,-0.0103,-0.0089,-0.0108,-0.0109,-0.0066,-0.0083,-0.0062,-0.0008,0.0013,0.0041,0.0136,0.0186,0.0224,0.0216,0.0242,0.0303,0.0258,0.0277,0.0278,0.028,0.0366,0.0376,0.0266,0.0267,0.0267,0.0268,0,-0.0122,-0.0142,-0.0158,-0.017,-0.0169,-0.0178,-0.015,-0.0134,-0.0101,-0.0068,-0.0023,0.0051,0.0115,0.0117,0.0163,0.0186,0.0235,0.0248,0.0295,0.027,0.0363,0.0375,0.0258,0.026,0.0262,0.0263,0,0,-0.0148,-0.0185,-0.0189,-0.0207,-0.0202,-0.0209,-0.0204,-0.0185,-0.0173,-0.012,-0.0095,-0.0039,0.0009,0.0049,0.01,0.0149,0.0199,0.0201,0.0206,0.0273,0.035,0.0359,0.0375,0.0213,0.0214,0.0215,0.0413,0,-0.0185,-0.0245,-0.0246,-0.0288,-0.0313,-0.0282,-0.0284,-0.0257,-0.0215,-0.0177,-0.0104,-0.0065,-0.002,0.0006,0.006,0.0164,0.0227,0.0147,0.0377,0.0385,0.0385,0.0387,0.0323,0.049,0.0426,0.0428,0.0429,0,-0.0227,-0.0264,-0.0321,-0.0353,-0.036,-0.0371,-0.0361,-0.0354,-0.029,-0.0256,-0.0193,-0.0127,-0.0044,-0.0012,0.0169,0.0119,0.0228,0.0311,0.0321,0.0383,0.0416,0.0507,0.0517,0.0452,0.045,0.0448,0.0447,0,-0.0262,-0.0314,-0.0365,-0.0377,-0.0403,-0.0411,-0.0412,-0.0373,-0.0365,-0.0298,-0.0274,-0.0162,-0.0094,0.004,0.0218,0.0197,0.0432,0.0423,0.0544,0.0548,0.0568,0.057,0.0553,0.0553,0.0552,0.0552,0.0551,0,-0.0306,-0.0344,-0.0386,-0.0414,-0.0461,-0.0456,-0.0477,-0.0458,-0.0419,-0.0403,-0.0314,-0.026,-0.0079,0.0077,0.0224,0.0438,0.0446,0.0553,0.0595,0.0525,0.0521,0.0544,0.054,0.0559,0.0558,0.0556,0.0555,0,-0.0336,-0.0366,-0.0428,-0.047,-0.0483,-0.0514,-0.0535,-0.0541,-0.05,-0.047,-0.0452,-0.0309,-0.0108,0.0095,0.0344,0.0451,0.0643,0.0718,0.0639,0.0666,0.0725,0.0713,0.0864,0.0866,0.0868,0.0869,0.087,0,-0.0357,-0.0395,-0.047,-0.0512,-0.0534,-0.0575,-0.06,-0.0584,-0.0583,-0.0492,-0.0474,-0.0284,-0.0128,0.0243,0.0456,0.073,0.0736,0.0817,0.0743,0.0729,0.0755,0.0741,0.0727,0.0741,0.0741,0.0741,0.0741,0,-0.0392,-0.0421,-0.0476,-0.0562,-0.0609,-0.066,-0.0686,-0.0697,-0.0658,-0.0607,-0.0491,-0.0357,-0.002,0.0255,0.0588,0.0722,0.0756,0.0823,0.0852,0.0649,0.0622,0.0644,0.0633,0.074,0.074,0.074,0.074,0.074,-0.0412,-0.0458,-0.0531,-0.0613,-0.0674,-0.0726,-0.075,-0.0744,-0.072,-0.0603,-0.0479,-0.0233,0.0003,0.0478,0.0646,0.0787,0.0812,0.0841,0.0837,0.0835,0.0763,0.0736,0.0866,0.0867,0.0868,0.0868,0.0869,0,-0.0423,-0.0492,-0.0575,-0.0669,-0.0736,-0.0755,-0.0793,-0.0781,-0.0729,-0.0553,-0.0388,-0.0106,0.0208,0.0448,0.0665,0.0797,0.0752,0.0802,0.0721,0.0722,0.0723,0.064,0.0715,0.0714,0.0714,0.0714,0,0,-0.043,-0.0517,-0.0568,-0.0696,-0.0757,-0.081,-0.0824,-0.0784,-0.0665,-0.0486,-0.0278,0.0028,0.029,0.0419,0.0558,0.0646,0.0641,0.0634,0.0746,0.0634,0.0632,0.0739,0.0613,0,0,0,0,0]}],[{"header":{"parameterUnit":"m.s-1","parameterCategory":2,"la1":30.2991,"la2":30.254,"lo1":-89.0895,"lo2":-89.0444,"dy":0.0017,"dx":0.0017,"nx":28,"ny":28,"refTime":"2024-12-17T09:00:00:Z","depth":"4","parameterNumber":2,"parameterNumberName":"U-component_of_CURRENTS"},"data":[0,0,0,0,0,0,0,0,0,0,0,0,0,0,0,0,0,0,0,0,0,0,0,0,0,0,0,0,0,0,0,0,0,0,0,0,0,0,0,0,0,0,0,0,0,0,0,0,0,0,0,0,0,0,0,0,0,0,-0.1313,-0.1314,0,-0.1379,-0.138,-0.138,-0.142,-0.1421,-0.1421,-0.1421,-0.1497,-0.1499,-0.1501,0,0,0,0,0,0,0,0,0,0,0,0,0,-0.1224,-0.1225,-0.1313,-0.1314,-0.1315,-0.1379,-0.138,-0.1381,-0.142,-0.1421,-0.1421,-0.1421,-0.1497,-0.1499,-0.1501,0,0,0,0,0,0,0,0,0,0,0,0,0,-0.1272,-0.1226,-0.1313,-0.1344,-0.1348,-0.1379,-0.138,-0.1381,-0.142,-0.1421,-0.1421,-0.1422,-0.1496,-0.1498,-0.1501,-0.1505,0,0,-0.1509,-0.151,0,0,0,0,0,0,0,0,-0.1269,-0.1275,-0.1339,-0.1342,-0.1346,-0.1394,-0.1377,-0.1424,-0.142,-0.139,-0.1421,-0.1422,-0.1465,-0.147,-0.1478,-0.1508,-0.1512,-0.1509,-0.151,-0.1511,-0.1512,0,0,0,0,0,0,0,-0.1266,-0.1272,-0.1337,-0.134,-0.1344,-0.1356,-0.1363,-0.1385,-0.1422,-0.1393,-0.1397,-0.1407,-0.1467,-0.1475,-0.148,-0.1513,-0.1509,-0.1511,-0.1512,-0.1513,-0.1607,-0.1608,0,0,0,0,0,0,-0.1261,-0.1269,-0.1335,-0.1339,-0.1311,-0.1357,-0.1365,-0.1376,-0.1422,-0.143,-0.1407,-0.1409,-0.1471,-0.1477,-0.1483,-0.1558,-0.1511,-0.1514,-0.1515,-0.1606,-0.1607,-0.1608,0,0,0,0,0,0,-0.1259,-0.1266,-0.1332,-0.1307,-0.1317,-0.1359,-0.137,-0.1377,-0.141,-0.1432,-0.144,-0.1436,-0.1471,-0.1479,-0.1522,-0.1559,-0.1515,-0.1517,-0.1605,-0.1607,-0.1608,-0.1665,0,0,0,0,0,0,-0.1256,-0.1265,-0.1281,-0.1307,-0.1318,-0.1364,-0.137,-0.1378,-0.1416,-0.142,-0.1459,-0.1465,-0.1472,-0.1518,-0.1524,-0.1561,-0.1519,-0.1604,-0.1606,-0.1607,-0.1662,-0.1668,-0.1674,0,0,0,0,0,-0.1253,-0.1269,-0.1281,-0.129,-0.1336,-0.1365,-0.1372,-0.1402,-0.1417,-0.1433,-0.1461,-0.1466,-0.1534,-0.1521,-0.1528,-0.1567,-0.1603,-0.1605,-0.1607,-0.1659,-0.1667,-0.1674,0,0,0,0,0,0,-0.1239,-0.1275,-0.129,-0.1317,-0.1346,-0.1373,-0.1395,-0.1415,-0.145,-0.1462,-0.1479,-0.1488,-0.1538,-0.154,-0.1525,-0.1597,-0.1569,-0.1573,-0.1606,-0.1613,-0.1619,-0.1608,-0.1521,0,0,0,0,0,-0.1242,-0.1267,-0.1299,-0.1324,-0.1339,-0.1371,-0.1392,-0.1413,-0.1443,-0.1461,-0.1491,-0.1519,-0.1548,-0.1571,-0.1591,-0.1634,-0.1611,-0.1661,-0.1667,-0.1672,-0.1667,-0.1666,-0.1671,-0.1616,-0.1616,-0.1616,0,0,-0.1245,-0.1269,-0.1284,-0.1323,-0.1348,-0.1378,-0.1385,-0.1423,-0.1459,-0.1463,-0.1524,-0.1543,-0.1562,-0.1608,-0.1631,-0.162,-0.1676,-0.1675,-0.168,-0.1671,-0.1669,-0.1674,-0.1679,-0.1617,-0.1617,-0.1617,0,0,-0.1253,-0.1282,-0.1303,-0.133,-0.1373,-0.1397,-0.1413,-0.1456,-0.1487,-0.1537,-0.1552,-0.159,-0.1637,-0.1659,-0.1674,-0.1724,-0.1704,-0.1737,-0.1768,-0.1767,-0.1771,-0.1775,-0.1748,-0.1748,-0.1745,-0.1745,-0.1745,0,-0.1256,-0.1287,-0.1314,-0.134,-0.1371,-0.1409,-0.1442,-0.1476,-0.1531,-0.1558,-0.1564,-0.1636,-0.1659,-0.171,-0.1732,-0.1739,-0.1722,-0.1742,-0.1775,-0.1778,-0.178,-0.1751,-0.1751,-0.1748,-0.1748,-0.1748,-0.1747,0,-0.1273,-0.1308,-0.1324,-0.1374,-0.141,-0.1444,-0.1494,-0.1539,-0.1581,-0.161,-0.1672,-0.1698,-0.1736,-0.1758,-0.1765,-0.1806,-0.1782,-0.1779,-0.1756,-0.1789,-0.1756,-0.1755,-0.1753,-0.1751,-0.1751,-0.175,0,0,-0.1248,-0.1322,-0.133,-0.1361,-0.1433,-0.146,-0.1529,-0.1591,-0.163,-0.1684,-0.1727,-0.1787,-0.1796,-0.1812,-0.1829,-0.1839,-0.185,-0.1823,-0.1822,-0.1794,-0.1829,-0.1719,-0.1707,-0.1855,-0.1856,-0.1856,-0.1796,0,-0.1256,-0.1309,-0.1352,-0.1414,-0.1446,-0.1509,-0.1564,-0.1627,-0.1678,-0.1727,-0.1765,-0.1806,-0.1819,-0.1839,-0.1855,-0.1853,-0.1851,-0.1865,-0.1802,-0.1799,-0.1696,-0.1703,-0.1857,-0.1795,-0.1794,-0.1794,-0.1794,0,-0.1251,-0.1293,-0.1353,-0.1435,-0.1456,-0.1503,-0.1594,-0.1648,-0.1723,-0.1758,-0.1806,-0.1828,-0.1869,-0.1862,-0.187,-0.1879,-0.1856,-0.1844,-0.1842,-0.1715,-0.1687,-0.1756,-0.1791,-0.1792,-0.1792,-0.1792,-0.1792,0,-0.1208,-0.1291,-0.1343,-0.1372,-0.1469,-0.1515,-0.1572,-0.1657,-0.1697,-0.1773,-0.1792,-0.1846,-0.1857,-0.186,-0.185,-0.1861,-0.1828,-0.1837,-0.171,-0.1701,-0.1794,-0.179,-0.1819,-0.1819,-0.1819,-0.182,-0.182,0,-0.1187,-0.1228,-0.1328,-0.1353,-0.1412,-0.1493,-0.1555,-0.1618,-0.1693,-0.1716,-0.1797,-0.1796,-0.1856,-0.1849,-0.1843,-0.1763,-0.182,-0.1701,-0.1678,-0.1818,-0.1818,-0.1792,-0.1789,-0.1817,-0.1818,-0.1818,-0.1819,0,-0.1124,-0.1194,-0.1251,-0.1358,-0.139,-0.1431,-0.153,-0.1564,-0.1647,-0.1675,-0.1695,-0.1757,-0.1741,-0.1773,-0.1761,-0.1723,-0.168,-0.1633,-0.1762,-0.1749,-0.1553,-0.1554,-0.1481,-0.1477,-0.1473,-0.147,-0.1467,0,-0.1095,-0.1119,-0.1231,-0.1261,-0.1311,-0.1382,-0.1422,-0.1527,-0.1551,-0.1621,-0.161,-0.1631,-0.1655,-0.1542,-0.16,-0.1569,-0.1558,-0.1527,-0.1559,-0.1533,-0.1518,-0.1526,-0.1532,-0.1461,-0.146,-0.146,-0.1459,0,-0.1031,-0.108,-0.1128,-0.1186,-0.1237,-0.1284,-0.1345,-0.1349,-0.1444,-0.1523,-0.1477,-0.1468,-0.1439,-0.1442,-0.1427,-0.1412,-0.1552,-0.1488,-0.1496,-0.1526,-0.1508,-0.1499,-0.151,-0.1446,-0.1448,-0.1449,-0.1449,0,-0.0979,-0.0992,-0.1055,-0.1094,-0.1152,-0.1164,-0.1216,-0.123,-0.1264,-0.1345,-0.1313,-0.1344,-0.1396,-0.1355,-0.1342,-0.1322,-0.1312,-0.1287,-0.1306,-0.132,-0.1302,-0.1259,-0.1085,0,0,0,0,0,-0.0918,-0.0922,-0.0954,-0.099,-0.1042,-0.1071,-0.115,-0.1203,-0.1281,-0.1208,-0.1261,-0.1228,-0.1202,-0.1225,-0.1172,-0.1287,-0.1331,-0.1224,-0.1315,-0.1374,-0.1389,-0.1387,0,0,0,0,0,0,-0.088,-0.0906,-0.0917,-0.089,-0.0891,-0.0932,-0.0979,-0.1041,-0.1011,-0.1093,-0.1081,-0.1145,-0.1139,-0.1196,-0.1137,-0.1148,-0.1182,-0.1256,-0.1253,-0.1366,-0.1379,-0.1391,-0.1394,0,0,0,0,0]},{"header":{"parameterUnit":"m.s-1","parameterCategory":2,"la1":30.2991,"la2":30.254,"lo1":-89.0895,"lo2":-89.0444,"dy":0.0017,"dx":0.0017,"nx":28,"ny":28,"refTime":"2024-12-17T09:00:00:Z","depth":"4","parameterNumber":3,"parameterNumberName":"V-component_of_CURRENTS"},"data":[0,0,0,0,0,0,0,0,0,0,0,0,0,0,0,0,0,0,0,0,0,0,0,0,0,0,0,0,0,0,0,0,0,0,0,0,0,0,0,0,0,0,0,0,0,0,0,0,0,0,0,0,0,0,0,0,0,0,-0.0074,-0.0073,0,-0.0061,-0.0061,-0.0061,-0.0028,-0.0027,-0.0027,-0.0026,0.0023,0.0023,0.0024,0,0,0,0,0,0,0,0,0,0,0,0,0,-0.005,-0.0051,-0.0074,-0.0073,-0.0073,-0.0061,-0.0061,-0.0061,-0.0028,-0.0027,-0.0027,-0.0026,0.0023,0.0023,0.0024,0,0,0,0,0,0,0,0,0,0,0,0,0,-0.0051,-0.0051,-0.0074,-0.0055,-0.0054,-0.0061,-0.0061,-0.0061,-0.0028,-0.0027,-0.0026,-0.0025,0.0022,0.0023,0.0024,0.0009,0,0,0.0027,0.0027,0,0,0,0,0,0,0,0,-0.0051,-0.0052,-0.0058,-0.0057,-0.0055,-0.0045,-0.0034,-0.0035,-0.0029,-0.0038,-0.0026,-0.0025,0.0003,0.0005,0.0005,0.0011,0.0013,0.0027,0.0028,0.0028,0.0028,0,0,0,0,0,0,0,-0.0051,-0.0052,-0.0069,-0.0058,-0.0056,-0.0041,-0.004,-0.0035,-0.0023,-0.0037,-0.0035,-0.0034,0.0004,0.0004,0.0006,0.0014,0.0027,0.0028,0.0029,0.0029,0.0042,0.0042,0,0,0,0,0,0,-0.0055,-0.0053,-0.0069,-0.0068,-0.005,-0.0043,-0.0042,-0.0049,-0.0024,-0.0019,-0.0034,-0.0032,0.0001,0.0005,0.0008,0.0023,0.0028,0.0029,0.003,0.0042,0.0042,0.0042,0,0,0,0,0,0,-0.0055,-0.0057,-0.007,-0.0059,-0.006,-0.0044,-0.0053,-0.005,-0.0045,-0.0022,-0.0017,-0.0032,0.0002,0.0007,0.0013,0.0024,0.0029,0.003,0.0043,0.0042,0.0042,0.0033,0,0,0,0,0,0,-0.0054,-0.0057,-0.0065,-0.006,-0.0061,-0.0077,-0.0054,-0.005,-0.0046,-0.0042,-0.0019,-0.0013,0.0004,0.0011,0.0013,0.0026,0.0031,0.0043,0.0042,0.0042,0.0034,0.0032,0.0031,0,0,0,0,0,-0.0054,-0.007,-0.0066,-0.0068,-0.0072,-0.0077,-0.0077,-0.0061,-0.0047,-0.0052,-0.0034,-0.0014,0.0011,0.0011,0.0014,0.0027,0.0043,0.0043,0.0042,0.0034,0.0033,0.0031,0,0,0,0,0,0,-0.0062,-0.0068,-0.0064,-0.008,-0.008,-0.0072,-0.0075,-0.0064,-0.0056,-0.0051,-0.0024,-0.0018,-0.0005,0.0004,0.0004,0.0028,0.0033,0.0033,0.0026,0.0025,0.0024,0.0021,0.0032,0,0,0,0,0,-0.007,-0.0083,-0.0083,-0.0095,-0.0097,-0.0087,-0.0086,-0.0079,-0.0069,-0.0064,-0.0046,-0.0027,-0.0007,0.0002,0.0015,0.002,0.0054,0.0032,0.0031,0.003,0.0029,0.0087,0.0091,0.004,0.004,0.004,0,0,-0.0076,-0.0081,-0.0088,-0.0098,-0.0096,-0.0104,-0.0084,-0.0089,-0.0087,-0.0061,-0.0054,-0.0033,-0.0008,0.0005,0.0012,0.0016,0.0063,0.003,0.0029,0.0028,0.0087,0.0092,0.0097,0.004,0.004,0.004,0,0,-0.0095,-0.0101,-0.0117,-0.0122,-0.0125,-0.0119,-0.0121,-0.0116,-0.0104,-0.0102,-0.0073,-0.0047,-0.0032,-0.0002,0.0014,0.0011,0.0054,0.0015,0.001,0.0066,0.0072,0.0077,0.0132,0.0142,0.0016,0.0016,0.0016,0,-0.01,-0.0124,-0.0122,-0.0138,-0.0144,-0.0127,-0.0142,-0.0131,-0.0122,-0.0111,-0.0102,-0.0054,-0.0031,0.0005,0.0008,0.0012,0.0047,0.0016,0.0067,0.0072,0.0078,0.0134,0.0145,0.0016,0.0016,0.0016,0.0016,0,-0.013,-0.0149,-0.0159,-0.0173,-0.0178,-0.0191,-0.0179,-0.0174,-0.0157,-0.0139,-0.0106,-0.007,-0.0038,-0.0021,-0.0007,0.0041,0.0055,0.006,0.0074,0.0083,0.014,0.0152,0.0015,0.0015,0.0015,0.0016,0,0,-0.0142,-0.0175,-0.0178,-0.0196,-0.0201,-0.0211,-0.0205,-0.0195,-0.0186,-0.0156,-0.0133,-0.0085,-0.0056,-0.0036,-0.0003,0.0046,0.012,0.0065,0.0068,0.0126,0.0247,0.0222,0.0233,0.0136,0.0137,0.0139,0.0276,0,-0.0164,-0.0209,-0.0214,-0.0247,-0.0269,-0.0255,-0.0255,-0.024,-0.0212,-0.0185,-0.0123,-0.0096,-0.0063,-0.0047,0.0013,0.0089,0.0149,0.0082,0.0224,0.0229,0.0211,0.0245,0.0144,0.0285,0.0288,0.029,0.0291,0,-0.0191,-0.022,-0.0264,-0.0294,-0.0301,-0.0313,-0.0308,-0.0305,-0.0254,-0.0233,-0.0178,-0.0133,-0.0052,-0.0032,0.0123,0.0079,0.0161,0.0224,0.0231,0.0217,0.0225,0.0272,0.0313,0.0311,0.031,0.0308,0.0307,0,-0.021,-0.0253,-0.0293,-0.0305,-0.0332,-0.0341,-0.0346,-0.0317,-0.0315,-0.0259,-0.0244,-0.0141,-0.0089,0.0027,0.0161,0.0145,0.0335,0.0331,0.0391,0.0391,0.0377,0.037,0.0444,0.0444,0.0444,0.0443,0.0443,0,-0.0236,-0.0267,-0.0308,-0.0331,-0.0373,-0.0374,-0.0395,-0.0382,-0.0355,-0.0342,-0.027,-0.0224,-0.0073,0.005,0.0168,0.0322,0.035,0.0401,0.0427,0.0369,0.036,0.0386,0.0377,0.0449,0.0447,0.0446,0.0446,0,-0.0251,-0.028,-0.0329,-0.0371,-0.0387,-0.0414,-0.0444,-0.0452,-0.0424,-0.0399,-0.0386,-0.0269,-0.0108,0.005,0.0254,0.0325,0.0473,0.052,0.0458,0.0476,0.049,0.0479,0.0598,0.0598,0.0599,0.0599,0.0599,0,-0.0262,-0.0292,-0.0361,-0.0399,-0.0421,-0.0463,-0.0491,-0.0487,-0.0488,-0.0417,-0.04,-0.0254,-0.0158,0.0128,0.0278,0.0504,0.0522,0.0585,0.0526,0.0494,0.0508,0.0496,0.0486,0.06,0.06,0.06,0.06,0,-0.028,-0.0308,-0.0351,-0.043,-0.0477,-0.0527,-0.0558,-0.0563,-0.0538,-0.0515,-0.039,-0.025,-0.0066,0.0138,0.0312,0.0468,0.0532,0.0588,0.0588,0.0533,0.0497,0.0508,0.0497,0.0601,0.0601,0.0601,0.06,0,-0.0286,-0.0324,-0.0387,-0.0454,-0.052,-0.0566,-0.0582,-0.0563,-0.0554,-0.0469,-0.0416,-0.0221,-0.0099,0.0121,0.0287,0.0431,0.045,0.0463,0.047,0.047,0.0375,0.0307,0.0386,0,0,0,0,0,-0.0285,-0.0337,-0.0407,-0.0484,-0.0549,-0.0582,-0.0617,-0.062,-0.0589,-0.0503,-0.0458,-0.028,-0.003,0.0085,0.0229,0.0265,0.0453,0.0431,0.0466,0.0606,0.0605,0.051,0,0,0,0,0,0,-0.029,-0.0356,-0.0405,-0.0492,-0.0543,-0.0607,-0.0627,-0.0609,-0.0553,-0.0495,-0.0347,-0.0272,-0.0016,-0.0096,0.0231,0.0272,0.0304,0.0555,0.0557,0.0607,0.0606,0.0605,0.0507,0,0,0,0,0]}]]